AO-07 1 07530U 74089B 26164.64372594 -.00000027 00000-0 12416-3 0 9999 2 07530 101.9901 177.8534 0012533 136.6950 338.1967 12.53698063360073 UO-11 1 14781U 84021B 26164.86535553 .00001244 00000-0 13219-3 0 9995 2 14781 97.8057 130.4772 0007318 183.8219 176.2945 14.90776132256630 LO-19 1 20442U 90005G 26164.62375740 .00000112 00000-0 56807-4 0 9993 2 20442 98.8851 186.3311 0010925 212.0527 147.9994 14.34122217901888 AO-27 1 22825U 93061C 26164.78337664 .00000093 00000-0 52439-4 0 9990 2 22825 98.6880 232.1981 0009503 108.4861 251.7356 14.30941424706511 FO-29 1 24278U 96046B 26164.83618926 .00000019 00000-0 52289-4 0 9990 2 24278 98.5242 14.1674 0350863 105.1048 258.9185 13.53274110472718 GO-32 1 25397U 98043D 26164.83321139 .00000056 00000-0 44485-4 0 9999 2 25397 99.0066 157.5072 0000881 170.2303 189.8892 14.24427851450853 ISS 1 25544U 98067A 26164.83523427 .00008738 00000-0 16534-3 0 9991 2 25544 51.6333 316.6832 0004955 182.4672 177.6293 15.49214103571238 NO-44 1 26931U 01043C 26164.59719895 .00000106 00000-0 70446-4 0 9993 2 26931 67.0507 253.5571 0006091 264.5230 95.5177 14.31954950289930 SO-50 1 27607U 02058C 26164.64880848 .00000986 00000-0 13345-3 0 9994 2 27607 64.5509 139.9331 0075334 263.1310 96.1222 14.83040079263931 CO-55 1 27844U 03031E 26164.80576488 .00000273 00000-0 13706-3 0 9999 2 27844 98.6736 173.4071 0009303 187.8424 172.2611 14.24333852191194 RS-22 1 27939U 03042A 26164.89312646 .00001186 00000-0 19096-3 0 9991 2 27939 98.3466 349.1595 0009972 281.6577 184.5687 14.73462775215066 CO-65 1 32785U 08021C 26164.86792194 .00004966 00000-0 31435-3 0 9995 2 32785 97.8270 146.2174 0010188 49.5442 310.6673 15.09425459984697 CO-66 1 32791U 08021J 26164.54482073 .00018790 00000-0 59804-3 0 9999 2 32791 97.7510 162.2685 0001606 15.7842 344.3449 15.32635476986739 RS-30 1 32953U 08025A 26164.87934095 -.00000015 00000-0 -17509-3 0 9994 2 32953 82.5045 357.4989 0018987 321.3501 38.6219 12.43179026819283 SRMSAT 1 37841U 11058D 26164.49266569 .00000360 00000-0 51406-4 0 9993 2 37841 19.9718 81.8294 0011872 162.9750 353.0513 14.11574841757297 ZACUBE-1 1 39417U 13066B 26164.87453134 .00003512 00000-0 27422-3 0 9995 2 39417 97.8083 127.1936 0040448 259.2680 100.3989 15.01171464680231 Delfi-N3xt 1 39428U 13066N 26164.83149657 .00005026 00000-0 44050-3 0 9993 2 39428 97.8343 85.1465 0073453 217.0735 142.5399 14.95050817674121 GOMX-1 1 39430U 13066Q 26164.84937855 .00002128 00000-0 32291-3 0 9996 2 39430 97.6488 5.5238 0130214 88.1590 273.4525 14.69449306669429 LO-74 1 39440U 13066AA 26164.84782955 .00004574 00000-0 42317-3 0 9993 2 39440 97.8902 113.8118 0058639 39.7873 320.7624 14.93736485676494 AO-73 1 39444U 13066AE 26164.87461990 .00007372 00000-0 45803-3 0 9995 2 39444 97.8267 136.2511 0035377 212.6416 147.2626 15.09452478679163 DTUSAT-2 1 40030U 14033W 26164.73736469 .00007626 00000-0 41236-3 0 9992 2 40030 98.0858 162.2453 0006408 239.3722 120.6877 15.14977827652168 LILACSAT-2 1 40908U 15049K 26164.85374697 .00018402 00000-0 31435-3 0 9992 2 40908 97.4650 201.5686 0005327 260.9207 99.1442 15.51345152595230 Horyu-4 1 41340U 16012D 26164.24367274 .00411178 59322-4 11265-2 0 9990 2 41340 30.9840 107.9281 0004244 244.6601 115.3620 15.92808659570185 Lapan A3 1 41603U 16040E 26164.86239266 .00003482 00000-0 11111-3 0 9991 2 41603 97.1482 161.1172 0011269 36.8796 323.3220 15.33085272554302 CAS-2T 1 41847U 16066G 26164.77755632 .00001655 00000-0 23896-3 0 9992 2 41847 98.3821 240.5528 0342693 139.7889 222.9205 14.44684063504309 TechnoSat 1 42829U 17042E 26164.65884588 .00004094 00000-0 29208-3 0 9991 2 42829 97.4269 322.4510 0018787 105.3407 254.9897 15.04937444486173 AO-91 1 43017U 17073E 26164.56984625 .00009212 00000-0 40226-3 0 9998 2 43017 97.4712 31.8592 0150140 341.8088 17.7804 15.12665401464842 S-Net D 1 43186U 18014G 26164.70123737 .00005261 00000-0 27216-3 0 9990 2 43186 97.5371 69.5139 0009271 40.9348 319.2579 15.16642878458232 S-Net B 1 43187U 18014H 26164.71262183 .00004993 00000-0 25867-3 0 9992 2 43187 97.5379 69.5119 0009796 36.2200 323.9694 15.16613690458236 S-Net A 1 43188U 18014J 26164.70013377 .00005299 00000-0 27401-3 0 9997 2 43188 97.5389 69.7072 0009660 37.1264 323.0635 15.16650574458236 S-Net C 1 43189U 18014K 26164.71648041 .00005003 00000-0 25919-3 0 9996 2 43189 97.5404 69.7978 0010844 29.1379 331.0457 15.16605716456781 Ten-Koh 1 43677U 18084G 26164.79481169 .00002282 00000-0 17470-3 0 9998 2 43677 98.0775 357.0156 0011242 124.1594 236.0697 15.02931702415652 PO-101 1 43678U 18084H 26164.83547012 .00002844 00000-0 23102-3 0 9997 2 43678 98.1178 0.8989 0012303 180.9539 179.1662 15.00438780415718 QO-100 1 43700U 18090A 26164.83824662 .00000154 00000-0 00000 0 0 9999 2 43700 0.0008 356.4962 0001507 125.4240 107.7957 1.00268894 27643 MinXSS-2 1 43758U 18099A 26164.72779083 .00033219 00000-0 66469-3 0 9998 2 43758 97.4548 240.9109 0006426 269.4600 90.5913 15.46683592413594 AO-95 1 43770U 18099N 26164.66941450 .00011615 00000-0 44518-3 0 9991 2 43770 97.4393 224.9284 0008355 10.7126 349.4289 15.26643407412685 SNUSat 2 1 43782U 18099AA 26164.65114042 .00008013 00000-0 35573-3 0 9991 2 43782 97.4064 218.0890 0008756 313.3812 46.6694 15.21789084412491 SnugLite 1 43784U 18099AC 26164.67091916 .00011415 00000-0 43186-3 0 9998 2 43784 97.3878 218.9854 0001309 321.4375 38.6770 15.27108120412785 ITASat 1 1 43786U 18099AE 26164.66214323 .00006799 00000-0 32727-3 0 9996 2 43786 97.4034 216.2439 0012487 12.7704 347.3845 15.19017046412372 EAGLET 1 1 43790U 18099AJ 26164.67973741 .00004582 00000-0 26345-3 0 9995 2 43790 97.4237 214.4411 0011016 6.6505 353.4871 15.12915954411802 ESEO 1 43792U 18099AL 26164.85430317 .00002196 00000-0 16198-3 0 9998 2 43792 97.3970 202.3849 0011681 351.0456 9.0560 15.04235786411301 JO-97 1 43803U 18099AX 26164.70285229 .00017139 00000-0 53016-3 0 9998 2 43803 97.4136 227.5247 0004189 279.4170 80.6599 15.33551647413095 Suomi 100 1 43804U 18099AY 26164.14705133 .00011498 00000-0 41885-3 0 9991 2 43804 97.4198 224.5551 0008362 296.4725 63.5657 15.28327206412800 ISAT 1 43879U 18111D 26164.77343803 .00092443 00000-0 94543-3 0 9997 2 43879 97.5886 99.7333 0000837 85.4426 274.6928 15.64723470410638 UWE-4 1 43880U 18111E 26164.78477082 .00034468 00000-0 70749-3 0 9992 2 43880 97.5857 93.0195 0006131 357.5273 2.5945 15.45933781410259 Sparrow 1 43881U 18111F 26164.82517073 .00145271 00000-0 10290-2 0 9992 2 43881 97.6124 105.3471 0004466 107.9115 252.2636 15.73520422410844 Prox-1 1 44339U 19036A 26164.24145975 .00013759 00000-0 13448-2 0 9995 2 44339 23.9923 140.6090 0005471 351.0248 9.0153 14.90523794372883 Taurus 1 1 44530U 19059C 26164.84420235 .00005606 00000-0 89982-3 0 9993 2 44530 98.6406 329.4652 0007598 328.4912 31.5837 14.72065782358151 TO-108 1 44881U 19093C 26164.81374269 .00000839 00000-0 10070-3 0 9997 2 44881 97.7534 237.1278 0015017 96.9993 263.2931 14.86513235350913 RS-44 1 44909U 19096E 26164.72157117 .00000028 00000-0 61609-4 0 9997 2 44909 82.5218 342.0083 0218031 152.2450 209.0490 12.79748789301907 SALSAT 1 46495U 20068K 26164.80958010 .00008083 00000-0 28306-3 0 9995 2 46495 97.8845 167.6684 0008290 322.4274 37.6385 15.29755280314848 CSS (TIANHE-1) 1 48274U 21035A 26164.84158950 .00024252 00000-0 28689-3 0 9996 2 48274 41.4695 342.3609 0007804 49.8258 310.3263 15.60672813292648 CUTE 1 49263U 21088D 26164.79483927 .00156144 11206-4 46949-3 0 9991 2 49263 97.4155 263.7637 0007626 235.0258 125.0300 15.92231673262018 TeikyoSat 4 1 49396U 21102B 26164.80621031 .00001693 00000-0 10933-3 0 9995 2 49396 97.3671 194.4211 0010684 310.0014 50.0277 15.09498408252217 Z-Sat 1 49399U 21102E 26164.83671568 .00004576 00000-0 22614-3 0 9993 2 49399 97.3328 200.2611 0014912 258.0807 101.8756 15.18241434252939 KOSEN 1 1 49402U 21102H 26164.86473610 .00008105 00000-0 30977-3 0 9992 2 49402 97.3189 207.0864 0012848 212.7186 147.3258 15.26793674253511 HO-113 1 50466U 21131B 26164.86132609 .00000407 00000-0 13926-3 0 9998 2 50466 98.4979 257.2689 0005323 103.8729 256.3053 14.41354217234635 SNUGLITE 2 1 52899U 22065F 26164.68284671 .00000895 00000-0 17864-3 0 9990 2 52899 98.2197 309.5196 0008219 43.0601 317.1243 14.64342046210488 UmKA 1 (RS40S) 1 57172U 23091G 26164.80407623 .00006270 00000-0 28700-3 0 9991 2 57172 97.5057 223.5140 0014114 128.1637 232.0873 15.20781857163495 CubeBel-2 (EU11S) 1 57175U 23091K 26164.84643469 .00013489 00000-0 47935-3 0 9999 2 57175 97.5060 228.0332 0011233 124.6898 235.5401 15.29076885163799 RS-38S 1 57189U 23091Z 26164.82511455 .00016982 00000-0 48694-3 0 9995 2 57189 97.5100 234.2426 0008454 87.6106 272.6105 15.35927076164173 SONATE-2 1 59112U 24043Q 26164.35034011 .00039351 00000-0 51586-3 0 9996 2 59112 97.5519 314.5122 0006880 208.3384 151.7498 15.58447081127293 GRBBeta 1 60237U 24128C 26164.63613419 .00003556 00000-0 24879-3 0 9999 2 60237 61.9894 228.7249 0041102 133.9233 226.5264 15.06618836105730 Curium One 1 60242U 24128H 26164.73231723 .00006855 00000-0 39702-3 0 9996 2 60242 61.9776 218.0110 0040251 129.9198 230.5446 15.12473220105935 ROBUSTA-3A 1 60243U 24128J 26164.62901992 .00006844 00000-0 40508-3 0 9991 2 60243 61.9858 220.8276 0041704 127.4925 232.9974 15.11641418105887 CatSat 1 60246U 24125J 26164.86511426 .00064578 00000-0 83951-3 0 9993 2 60246 97.2086 17.3242 0022241 190.9935 169.0838 15.58284776106878 HYPERVIEW-1G (RS66S) 1 61772U 24199AP 26164.44200519 .00132494 00000-0 88637-3 0 9990 2 61772 97.2884 43.9750 0002868 238.7842 121.3142 15.74899790134088 AO-123 1 61781U 24199AY 26164.84178444 .00008115 00000-0 23596-3 0 9990 2 61781 97.3008 33.5434 0012582 327.3717 32.6749 15.35632443133411 JINJUSat 1B 1 63210U 25052A 26164.68746558 .00016788 00000-0 52168-3 0 9999 2 63210 97.4011 61.4384 0005500 98.7996 261.3870 15.33404070 69560 NUSHSAT 1 1 63211U 25052B 26164.67160472 .00022160 00000-0 63632-3 0 9993 2 63211 97.3994 61.9761 0005180 100.8520 259.3306 15.35845242 69604 TEVEL2-4 1 63213U 25052D 26164.66098885 .00019485 00000-0 58447-3 0 9996 2 63213 97.3918 61.0474 0004795 110.7775 249.3982 15.34498104 69572 TEVEL2-5 1 63214U 25052E 26164.68109434 .00018656 00000-0 56280-3 0 9994 2 63214 97.3917 61.0162 0004691 111.4679 248.7064 15.34327259 69578 TEVEL2-6 1 63215U 25052F 26164.69334495 .00018726 00000-0 56554-3 0 9995 2 63215 97.3920 61.0131 0004626 111.4401 248.7336 15.34291680 69570 TEVEL2-1 1 63217U 25052H 26164.65592041 .00018482 00000-0 56763-3 0 9997 2 63217 97.3891 60.6044 0004579 120.6431 239.5263 15.33760135 69559 TEVEL2-3 1 63218U 25052J 26164.65068985 .00018701 00000-0 57335-3 0 9993 2 63218 97.3895 60.6205 0004575 120.5094 239.6601 15.33815100 69553 TEVEL2-2 1 63219U 25052K 26164.65625368 .00018774 00000-0 57640-3 0 9997 2 63219 97.3888 60.6072 0004613 120.9946 239.1750 15.33768522 69556 TEVEL2-9 1 63237U 25052AD 26164.69444860 .00016401 00000-0 53567-3 0 9996 2 63237 97.3952 60.0277 0007511 140.3804 219.7987 15.31800703 69493 TEVEL2-7 1 63238U 25052AE 26164.66935050 .00016668 00000-0 54931-3 0 9991 2 63238 97.3956 59.9204 0007556 140.9014 219.2775 15.31507331 69483 TEVEL2-8 1 63239U 25052AF 26164.67756597 .00015937 00000-0 52565-3 0 9999 2 63239 97.3953 59.9057 0007630 141.6953 218.4831 15.31490924 69483 SPIRONE 1 66657U 25274H 26164.77114773 .00002013 00000-0 19623-3 0 9996 2 66657 97.7484 94.1114 0013012 32.6725 327.5297 14.93534947 29716 K-HERO 1 66660U 25274L 26164.77669553 .00001612 00000-0 15653-3 0 9994 2 66660 97.7493 94.2754 0014963 35.5851 324.6363 14.93952183 29728 SNUGLITE-III DURI 1 66661U 25274M 26164.76456642 .00001872 00000-0 18067-3 0 9997 2 66661 97.7488 94.2836 0015577 36.3265 323.9009 14.93992527 29729 SAKHACUBE-CHOLBON 1 67290U 25313AU 26164.74793793 .00010055 00000-0 40721-3 0 9994 2 67290 97.3941 239.8254 0009216 17.7131 342.4426 15.24832674 25453 RS95S (QMR-KWT-2) 1 67291U 25313AV 26164.73934255 .00014197 00000-0 55037-3 0 9991 2 67291 97.3939 239.9852 0008561 15.9881 344.1626 15.26212808 25465 Ten-Koh2 1 68261U 25241B 26164.73680356 .00006404 00000-0 27529-3 0 9996 2 68261 51.6690 336.0488 0006153 131.9558 228.1945 15.23867079 14386 JACK-002 1 68417U 26067B 26164.86852132 .00006607 00000-0 31564-3 0 9992 2 68417 97.4564 123.5001 0000597 11.9931 348.1318 15.19358285 11445 DISCO 2 1 68431U 26067R 26164.82311057 .00008555 00000-0 41155-3 0 9991 2 68431 97.4598 123.4439 0003103 49.4579 310.6926 15.19027088 11434 HADES-SA (SpinnyONE) 1 68446U 26067AG 26163.80818706 .00019788 00000-0 94817-3 0 9990 2 68446 97.4393 122.1700 0009698 93.0154 267.2191 15.18919379 11263 PARUS-6U1 1 68456U 26067AS 26164.82551562 .00006244 00000-0 31472-3 0 9999 2 68456 97.4550 123.2407 0007566 80.4228 279.7860 15.17484972 11423 SAL-E 1 68458U 26067AU 26164.82146829 .00008334 00000-0 41608-3 0 9991 2 68458 97.4472 123.1747 0007989 87.8432 272.3716 15.17713495 11425 FSI-SAT 2 1 68792U 26088A 26164.36776721 .00005130 00000-0 34755-3 0 9990 2 68792 97.5051 313.7231 0015554 118.7154 241.5639 15.06804518 7711 OrigamiSat 2 1 68795U 26088D 26163.91742595 .00003406 00000-0 22097-3 0 9995 2 68795 97.5058 313.4073 0016628 95.5779 264.7346 15.08635651 7657 ARICA 2 1 68796U 26088E 26164.38025851 .00004194 00000-0 27281-3 0 9992 2 68796 97.5045 313.8524 0017049 92.2624 268.0557 15.08396644 7725 WASEDA-SAT-ZERO-II 1 68797U 26088F 26164.37650490 .00006285 00000-0 40453-3 0 9994 2 68797 97.5041 313.8562 0016795 92.4188 267.8963 15.08599416 7728 MANGARO-II-Piscus 1 68798U 26088G 26164.36733585 .00004535 00000-0 29138-3 0 9994 2 68798 97.5056 313.8750 0020426 94.6765 265.6798 15.08757249 7727 IO-86 1 40931U 25360.30710720 .00000000 00000-0 12800-3 0 00 2 40931 6.0006 332.5373 0012733 338.8432 8.1437 14.79075515 01 LILIUM-4 1 71922C 26067AC 26089.50133053 -.00014632 00000 0 -74472-3 0 04 2 71922 97.4497 49.1617 0004341 5.9603 355.7042 15.16896692 16